Regional Weather Roundup
Issued by NWS

Home | Current Version | Previous Version | Text Only | Print | Product List | Glossary Off
Versions: 1 2 3 4 5 6 7 8 9 10 11 12 13 14 15 16 17 18 19 20 21 22 23 24 25 26 27 28 29 30 31 32 33 34 35 36 37 38 39 40 41 42 43 44 45 46 47 48 49 50

000
ASUS44 KMEG 191010
RWRTN
TENNESSEE HOURLY STATE WEATHER ROUNDUP
NATIONAL WEATHER SERVICE MEMPHIS TN
400 AM CST FRI DEC 19 2014

TNZ002-004-019-021-049-052-054-088>092-191100-
WEST TENNESSEE

CITY           SKY/WX    TMP DP  RH WIND       PRES   REMARKS
MEMPHIS INTL   CLOUDY    43  36  76 N5        30.21R
NWS MEMPHIS      N/A     41 N/A N/A MISG        N/A
JACKSON        CLOUDY    39  33  79 NE6       30.23R WCI  35
DYERSBURG      CLOUDY    37  25  60 NE7       30.25S WCI  32
UNION CITY     CLOUDY    34  30  86 NE7       30.22F WCI  28
PARIS          CLOUDY    32  28  86 NE9       30.23S WCI  24
HUNTINGDON     CLOUDY    33  29  86 NE7       30.22F WCI  27
LEXINGTON      CLOUDY    36  32  87 NE5       30.21R WCI  32
SAVANNAH       CLOUDY    39  36  87 NE3       30.20S
$$

TNZ008-025-027-028-033-062-065-066-191100-
NORTH MIDDLE TENNESSEE

CITY           SKY/WX    TMP DP  RH WIND       PRES   REMARKS
NASHVILLE      CLOUDY    35  29  78 NE6       30.23F WCI  30
CLARKSVILLE    CLOUDY    34  29  82 N7        30.24F WCI  28
SMYRNA         CLOUDY    34  30  85 NE6       30.24F WCI  29
COOKEVILLE     CLEAR     25  25 100 CALM      30.19F
CROSSVILLE     CLOUDY    31  27  85 CALM      30.17R FOG
$$

TNZ061-075-076-078-094-096-097-191100-
SOUTH MIDDLE TENNESSEE

CITY           SKY/WX    TMP DP  RH WIND       PRES   REMARKS
FAYETTEVILLE   CLOUDY    32  30  93 MISG      30.19S
TULLAHOMA      CLOUDY    30  30 100 NE3       30.18F
WINCHESTER     CLOUDY    30  30 100 CALM      30.18F
MCMINNVILLE    PTCLDY    32  32 100 CALM      30.19F
SHELBYVILLE    CLOUDY    34  32  93 N6        30.21F WCI  29
$$

TNZ017-018-042-046-047-191100-
NORTHEAST TENNESSEE

CITY           SKY/WX    TMP DP  RH WIND       PRES   REMARKS
TRI CITIES     CLOUDY    37  23  56 W5        30.14S WCI  33
ELIZABETHTON   CLOUDY    36  25  64 W3        30.13S
$$

TNZ012-013-036-069-073-074-191100-
CENTRAL EAST TENNESSEE

CITY           SKY/WX    TMP DP  RH WIND       PRES   REMARKS
KNOXVILLE      CLOUDY    33  28  81 CALM      30.18R
OAK RIDGE      PTCLDY    32  28  85 CALM      30.20R
GATLINBURG     CLOUDY    32  28  86 CALM      30.18R
MORRISTOWN     CLOUDY    37  25  60 CALM      30.17R
$$

TNZ083-085-099-191100-
SOUTHEAST TENNESSEE

CITY           SKY/WX    TMP DP  RH WIND       PRES   REMARKS
CHATTANOOGA    CLEAR     33  30  88 CALM      30.18S
$$

SKY/WX REPORTED AS FAIR MEANS FEW OR NO CLOUDS BELOW
12 THOUSAND FEET.



USA.gov is the U.S. government's official web portal to all federal, state and local government web resources and services.